This is the latest recevied weather packets stored in our database for station/object KD9WYV. If no packets are shown the sender has not sent any weather packets the latest 10 day(s).
| Time | Temp. | Humidity | Pressure | Rain* | Wind** | Luminosity | Snow |
|---|---|---|---|---|---|---|---|
| 1776995716 | 22.22° C | 41% | 1010.9 hPa | 0 mm | - | 0 W/m² | - |
| 1776995410 | 22.22° C | 40% | 1010.6 hPa | 0 mm | - | 0 W/m² | - |
| 1776995106 | 22.78° C | 40% | 1010.6 hPa | 0 mm | - | 0 W/m² | - |
| 1776994803 | 22.78° C | 39% | 1010.6 hPa | 0 mm | - | 0 W/m² | - |
| 1776994497 | 22.78° C | 39% | 1010.5 hPa | 0 mm | - | 0 W/m² | - |
| 1776994194 | 22.78° C | 39% | 1010.9 hPa | 0 mm | - | 0 W/m² | - |
| 1776993891 | 22.78° C | 39% | 1010.6 hPa | 0 mm | - | 0 W/m² | - |
| 1776993588 | 22.78° C | 39% | 1010.4 hPa | 0 mm | - | 0 W/m² | - |
| 1776993285 | 23.33° C | 38% | 1010.6 hPa | 0 mm | - | 0 W/m² | - |
| 1776992983 | 23.33° C | 38% | 1010.5 hPa | 0 mm | - | 0 W/m² | - |
| 1776992679 | 23.33° C | 38% | 1010.5 hPa | 0 mm | - | 0 W/m² | - |
| 1776992376 | 23.89° C | 37% | 1010.6 hPa | 0 mm | - | 0 W/m² | - |
| 1776992073 | 23.89° C | 37% | 1010.8 hPa | 0 mm | - | 0 W/m² | - |
| 1776991769 | 23.89° C | 37% | 1010.8 hPa | 0 mm | - | 0 W/m² | - |
| 1776991466 | 24.44° C | 36% | 1011 hPa | 0 mm | - | 0 W/m² | - |
| 1776991161 | 24.44° C | 36% | 1010.6 hPa | 0 mm | - | 1 W/m² | - |
| 1776990858 | 24.44° C | 36% | 1010.6 hPa | 0 mm | - | 2 W/m² | - |
| 1776990555 | 25° C | 36% | 1010.9 hPa | 0 mm | - | 4 W/m² | - |
| 1776990253 | 25° C | 35% | 1010.6 hPa | 0 mm | - | 7 W/m² | - |
| 1776989946 | 25.56° C | 34% | 1010.9 hPa | 0 mm | - | 11 W/m² | - |
| 1776989643 | 25.56° C | 34% | 1010.9 hPa | 0 mm | - | 15 W/m² | - |
| 1776989339 | 25.56° C | 33% | 1010.8 hPa | 0 mm | - | 19 W/m² | - |
| 1776989036 | 26.11° C | 32% | 1010.8 hPa | 0 mm | - | 23 W/m² | - |
| 1776988733 | 26.11° C | 32% | 1011 hPa | 0 mm | - | 27 W/m² | - |
| 1776988430 | 26.11° C | 32% | 1010.9 hPa | 0 mm | - | 32 W/m² | - |
* Rain latest hour (hover to see other rain measurements)
** Current wind speed in m/s (hover to see current wind gust speed)